SCP
1 1 0 0 0 0 0 0 0 0 0 0 0 0 0 0 0 0 0 0 0 0 0 0 0 0 0 0 0 0 0 0 0 0 0 0 0 0 0 0 0 0 0 0 0 0 0 0 0
1 1 0 0 0 0 0 0 0 0 0 0 0 0 0 0 0 0 0 0 0 0 0 0 0 0 0 0 0 0 0 0 0 0 0 0 0 0 0 0 0 0 0 0 0 0 0 0 0
1 0 0 0 0 0 0 0 0 0 0 0 0 0 0 0 0 0 0 0 0 0 0 0 0 0 0 0 0 0 0 0 0 0 0 0 0 0 0 0 0 0 0 0 0 0 0 1 1
0 0 0 0 0 0 0 0 0 0 0 0 0 0 0 0 0 0 0 0 0 0 0 0 0 0 0 0 0 0 0 0 0 0 0 0 0 0 0 0 0 0 0 0 0 0 0 0 0
0 0 0 0 0 0 0 0 0 0 0 0 0 0 0 0 0 0 0 0 0 0 0 0 0 0 0 0 0 0 0 0 0 0 0 0 0 0 0 0 0 0 0 0 0 0 0 0 0
0 0 0 0 0 0 0 0 0 0 0 0 0 0 0 0 0 0 0 0 0 0 0 0 0 0 0 0 0 0 0 0 0 0 0 0 0 0 0 0 0 0 0 0 0 0 0 0 0
0 0 0 0 0 0 0 0 0 0 0 0 0 0 0 0 0 0 0 0 0 0 0 0 0 0 0 0 0 0 0 0 0 0 0 0 0 0 0 0 0 0 0 0 0 0 0 0 0
0 0 0 0 0 0 0 0 0 0 0 0 0 0 0 0 0 0 1 1 1 0 0 0 0 0 0 0 0 0 0 0 0 0 0 0 0 0 0 0 0 0 0 0 0 0 0 0 0
0 0 0 0 0 0 0 0 0 0 0 0 0 0 0 0 0 1 1 1 1 1 1 1 0 0 0 0 0 0 0 0 0 0 0 0 0 0 0 0 0 0 0 0 0 0 0 0 0
0 0 0 0 0 0 0 0 0 0 0 0 0 0 0 0 0 1 1 1 1 1 1 1 1 1 0 0 0 0 1 1 1 1 0 0 0 0 0 0 0 0 0 0 0 0 0 0 0
0 0 0 0 0 0 0 0 0 0 0 0 0 0 0 0 0 1 1 1 1 1 1 1 1 1 1 1 1 1 1 1 1 1 0 0 0 0 0 0 0 0 0 0 0 0 0 0 0
0 0 0 0 0 0 0 0 0 0 0 0 0 0 0 0 0 0 1 1 1 1 1 1 1 1 1 1 1 1 1 1 1 1 0 0 0 0 0 0 0 0 0 0 0 0 0 0 0
0 0 0 0 0 0 0 0 0 0 0 0 0 0 1 1 1 1 1 1 1 1 1 2 2 2 2 2 1 1 1 1 1 1 0 0 0 0 0 0 0 0 0 0 0 0 0 0 0
0 0 0 0 0 0 0 0 0 0 0 0 1 1 1 1 1 1 1 1 1 1 1 2 2 2 2 2 2 2 1 1 1 1 0 0 0 0 0 0 0 0 0 0 0 0 0 0 0
0 0 0 0 0 0 0 0 0 0 0 1 1 1 1 1 1 1 1 1 1 1 1 2 2 2 2 2 2 2 1 1 1 1 0 0 0 0 0 0 0 0 0 0 0 0 0 0 0
0 0 0 0 0 0 0 0 0 0 0 1 1 1 1 1 1 1 1 1 2 2 1 2 2 2 2 2 2 2 1 1 1 1 1 0 0 0 0 0 0 0 0 0 0 0 0 0 0
0 0 0 0 0 0 0 0 0 0 0 0 1 1 1 1 1 1 1 2 2 2 2 1 2 2 2 2 2 2 2 1 1 1 1 0 0 0 0 0 0 0 0 0 0 0 0 0 0
0 0 0 0 0 0 0 0 0 0 0 0 0 0 1 1 1 1 1 1 2 2 2 2 2 2 2 2 2 2 2 2 1 1 1 1 0 0 0 0 0 0 0 0 0 0 0 0 0
0 0 0 0 0 0 0 0 0 0 0 0 0 0 1 1 1 1 1 1 1 1 2 2 2 2 2 2 2 2 2 2 2 1 1 1 1 0 0 0 0 0 0 0 0 0 0 0 0
0 0 0 0 0 0 0 0 0 0 0 0 0 1 1 1 1 1 1 1 1 1 1 2 2 1 2 2 3 3 2 2 2 2 2 1 1 1 1 1 0 0 0 0 0 0 0 0 0
0 0 0 0 0 0 0 0 0 0 0 1 1 1 1 1 1 1 1 1 1 1 1 1 1 1 1 2 3 3 3 2 2 2 2 2 1 1 1 1 1 1 0 0 0 0 0 0 0
0 0 0 0 0 0 0 0 0 0 0 1 1 1 1 1 1 1 1 0 0 1 1 1 1 1 1 2 3 3 3 3 3 3 3 2 1 1 1 1 1 1 1 0 0 0 0 0 0
0 0 0 0 0 0 0 0 0 0 0 1 1 1 1 1 0 0 0 0 0 1 1 1 1 1 1 1 2 2 2 2 3 3 3 2 2 1 1 1 1 1 1 1 1 0 0 0 0
0 0 0 0 0 0 0 0 0 0 0 1 1 1 0 0 0 0 0 0 1 1 1 1 0 0 0 1 2 2 2 2 2 3 3 3 2 1 1 1 1 1 1 1 1 1 1 1 1
0 0 0 0 0 0 0 0 0 0 0 0 0 0 0 0 0 0 0 0 1 1 1 1 0 0 0 1 1 2 2 1 2 3 3 3 3 2 1 1 1 1 1 1 1 1 1 1 0
0 0 0 0 0 0 0 0 0 0 0 0 0 0 0 0 0 0 0 0 0 0 1 0 0 0 0 1 1 1 2 1 2 2 3 3 2 1 1 1 1 1 1 1 1 0 0 0 0
0 0 0 0 0 0 0 0 0 0 0 0 0 0 0 0 0 0 0 0 0 0 0 0 0 1 1 1 1 2 2 1 2 2 2 2 1 1 1 1 1 1 1 1 1 0 0 0 0
0 0 0 0 0 0 0 0 0 0 0 0 0 0 0 0 0 0 0 0 0 0 0 0 0 0 1 1 1 2 2 1 1 1 1 1 0 0 0 0 0 0 0 0 0 0 0 0 0
0 0 0 0 0 0 0 0 0 0 0 0 0 0 0 0 0 0 0 0 0 0 0 0 0 0 0 1 1 1 1 1 1 1 1 0 0 0 0 0 0 0 0 0 0 0 0 0 0
0 0 0 0 0 0 0 0 0 0 0 0 0 0 0 0 0 0 0 0 0 0 0 0 0 0 0 0 0 1 1 0 0 0 0 0 0 0 0 0 0 0 0 0 0 0 0 0 0
Wind_Speed
5 2 2 2 6 6 3 1 3 4 4 4 7 9 7 5 3 5 5 13 15 13 11 13 15 15 14 14 13 13 13 12 12 12 12 11 11 10 9 9 9 9 9 8 8 8 8 7 7
2 1 2 4 6 4 0 1 4 3 6 7 7 6 7 5 6 9 7 14 16 14 11 11 16 15 14 13 13 13 13 12 12 12 11 11 10 10 9 9 8 8 8 8 8 7 7 6 7
2 2 3 4 3 5 3 3 4 3 5 6 5 5 6 5 7 6 10 17 15 13 10 12 16 15 14 13 13 13 13 12 12 11 11 10 10 9 9 8 8 8 8 7 7 7 6 6 6
1 3 4 4 2 4 6 4 3 5 5 5 6 6 4 4 6 11 18 17 15 12 10 11 16 15 14 13 12 13 12 12 12 11 10 10 9 9 8 8 8 8 8 7 6 6 5 5 5
3 4 5 3 1 1 2 1 4 5 4 5 8 6 3 3 14 20 18 16 15 11 10 11 15 14 13 13 12 12 12 12 12 11 10 10 9 9 8 8 8 7 7 7 6 5 5 4 4
4 5 4 2 3 2 2 3 7 9 8 8 8 6 2 6 15 17 16 14 15 14 11 10 15 15 13 13 13 13 12 12 12 11 10 10 9 8 8 8 7 7 6 6 5 5 4 4 3
4 4 2 2 3 3 3 3 5 6 6 6 8 7 4 5 11 14 15 14 13 13 12 9 9 11 13 13 13 13 13 12 12 11 11 10 9 9 8 8 7 7 6 5 4 4 3 3 2
4 4 3 3 3 3 6 3 3 6 5 6 6 8 7 8 10 12 13 13 12 11 11 10 8 7 7 8 13 14 13 13 13 12 11 11 10 9 9 8 8 7 6 5 4 3 3 2 1
4 6 2 2 2 4 6 5 4 6 7 4 3 5 9 13 12 11 11 9 10 11 9 10 9 8 8 7 11 12 13 13 12 11 13 10 5 5 5 7 9 8 7 6 5 4 4 3 2
5 3 2 3 3 3 5 4 2 5 7 5 5 6 11 11 11 12 13 14 13 13 12 10 11 10 9 8 7 5 6 6 6 5 6 5 4 4 6 7 10 10 8 7 7 6 5 3 2
3 4 4 3 4 2 3 4 3 5 3 3 7 11 11 9 10 11 13 14 15 15 14 13 12 11 11 7 6 4 4 4 5 6 6 5 4 3 4 3 5 5 6 3 4 4 3 2 2
2 2 4 4 3 2 1 2 3 4 1 2 8 12 10 9 9 9 10 10 10 13 15 14 14 12 12 9 7 6 5 5 5 6 7 5 4 4 4 3 3 3 2 3 3 2 4 4 4
1 1 2 3 4 3 0 2 3 3 4 5 7 7 6 6 4 3 3 5 7 10 12 13 15 14 12 10 8 8 7 7 8 7 7 7 5 5 5 4 4 4 3 3 3 3 4 4 4
2 1 2 3 3 1 3 5 6 5 6 9 10 8 6 5 3 3 2 1 3 5 7 9 12 14 13 11 9 8 8 8 7 7 8 9 6 6 6 6 5 5 5 4 4 4 4 3 3
1 2 5 5 2 1 5 8 7 5 7 10 10 9 9 8 9 8 6 4 2 0 1 4 9 11 12 12 11 9 8 8 7 7 8 9 8 8 7 7 6 6 5 5 3 3 2 2 2
4 4 3 5 5 3 7 4 8 8 10 11 11 11 10 10 10 9 10 9 8 7 6 3 3 7 10 10 10 8 8 8 7 7 7 9 10 8 7 6 7 6 5 4 3 3 2 2 2
6 3 3 5 8 6 8 5 9 11 13 14 13 12 12 12 13 12 12 11 11 10 9 7 5 2 6 7 8 8 7 7 7 6 6 8 9 8 6 5 5 5 4 3 4 2 3 2 2
2 2 3 4 6 8 9 8 10 13 15 15 14 13 13 13 13 12 11 11 10 10 9 9 7 5 3 3 3 4 5 5 5 6 6 7 6 7 6 4 5 5 4 3 3 3 2 2 2
4 5 4 2 4 7 10 11 12 14 17 17 14 13 13 12 12 12 12 11 10 10 10 10 9 7 3 1 2 3 4 4 4 4 6 6 5 6 6 5 5 5 4 4 4 3 3 2 2
7 6 4 4 4 5 8 10 10 15 16 14 14 14 14 14 14 14 14 13 11 9 9 9 9 8 5 2 2 3 3 2 3 3 4 5 5 5 5 6 5 5 4 4 4 3 3 1 2
4 3 2 3 5 4 6 6 11 9 13 15 16 13 14 14 15 14 14 12 11 10 9 8 8 8 7 5 2 1 1 1 1 2 2 3 4 5 5 5 4 4 4 4 4 4 4 3 1
4 4 4 3 2 3 2 2 7 10 13 18 17 16 15 15 14 13 13 13 13 11 9 9 8 8 6 5 2 2 3 4 5 3 3 3 3 5 6 5 4 3 3 3 3 3 2 3 2
5 7 5 3 2 2 5 4 5 8 13 18 17 16 15 15 14 13 12 12 11 10 9 8 8 8 7 5 3 2 2 3 3 4 6 4 3 4 5 5 4 3 2 3 3 3 3 2 3
5 6 6 6 6 5 5 4 6 8 12 16 16 15 15 15 13 12 11 11 10 9 8 8 8 8 7 6 4 2 1 3 5 5 6 4 3 3 4 4 4 4 3 3 3 3 4 3 2
9 7 7 9 7 2 3 6 3 6 9 11 14 15 15 13 12 11 12 11 10 9 9 7 7 7 7 6 5 3 2 3 4 5 5 5 3 2 4 4 3 3 2 2 3 3 3 3 3
4 5 5 2 1 1 4 4 1 4 8 10 11 12 13 12 11 10 11 9 9 9 8 7 7 7 7 6 6 5 3 2 2 3 3 3 2 2 3 3 2 2 3 2 2 2 3 3 3
4 4 1 5 2 3 3 2 3 7 12 13 14 14 14 13 12 11 10 10 9 8 7 6 6 6 7 6 5 5 5 4 4 4 3 2 2 2 2 2 1 1 2 1 2 2 3 3 3
4 2 5 5 3 2 2 3 6 12 15 15 14 14 13 13 12 12 10 10 8 7 7 7 7 6 6 6 6 5 5 4 3 3 3 2 1 1 1 1 1 1 1 2 2 2 2 3 3
7 6 5 4 4 3 1 3 4 8 10 11 11 11 11 12 12 11 10 9 8 8 8 8 8 7 7 7 6 6 5 5 5 4 3 2 2 1 0 1 1 1 2 2 2 3 3 3 2
4 3 3 4 2 3 2 3 5 6 8 8 9 9 9 9 9 10 10 9 9 9 8 8 8 8 7 7 7 7 6 6 6 5 4 3 3 2 1 1 1 1 1 0 1 3 3 3 3
Wind_Direction
296 291 129 81 53 54 88 109 100 63 63 68 79 86 88 72 98 135 138 146 138 147 150 148 148 144 140 138 135 133 130 128 124 121 117 115 114 112 108 104 101 98 96 93 91 89 87 89 95
302 285 107 62 78 80 39 141 97 109 135 122 87 86 83 70 86 106 122 143 142 146 148 150 149 146 144 142 139 137 135 132 128 125 122 120 117 115 113 110 108 107 103 100 98 98 97 95 95
265 197 89 71 105 150 183 201 159 141 118 109 86 64 82 111 115 120 142 143 142 145 148 154 152 150 148 147 145 142 139 136 132 130 128 125 123 119 116 113 111 109 108 106 102 101 102 103 103
54 51 53 74 128 194 179 201 174 108 76 71 93 62 58 129 134 133 141 144 143 146 148 156 155 154 153 151 148 145 143 141 139 137 136 134 131 126 121 118 116 113 111 107 105 104 107 110 113
77 70 49 52 113 248 200 167 115 102 87 81 89 83 41 48 121 135 145 147 145 146 151 159 158 158 157 156 154 152 150 148 146 146 145 144 142 138 131 125 122 120 118 115 111 108 111 114 117
54 58 59 12 335 337 7 52 92 97 111 112 106 102 85 122 132 145 149 149 148 151 156 161 164 163 163 163 162 160 159 156 155 154 154 154 151 147 143 137 132 128 125 124 120 116 119 120 120
82 70 48 337 343 12 10 46 91 111 125 142 130 103 121 155 150 150 150 150 151 154 157 160 165 168 170 169 169 168 167 165 163 162 163 162 160 158 156 151 149 146 144 142 139 139 141 140 135
111 85 32 2 7 343 330 0 97 104 110 129 120 128 159 185 158 148 149 151 155 158 162 164 166 168 169 172 176 175 173 173 171 170 171 171 170 170 170 167 169 168 170 171 173 178 181 190 203
83 74 57 335 341 305 326 4 31 54 74 61 78 143 161 160 148 141 148 151 161 166 171 172 173 174 172 175 183 179 178 179 178 177 179 176 174 176 179 185 188 188 190 194 201 213 225 238 265
88 104 181 213 209 258 319 341 30 69 61 50 62 95 136 149 150 154 161 168 174 177 182 181 181 181 178 183 179 176 179 179 177 177 180 171 176 192 196 205 203 202 204 210 217 228 241 253 286
119 158 184 195 198 232 322 345 29 101 80 156 153 152 155 156 161 168 174 178 183 183 185 186 186 185 183 185 175 179 177 175 180 184 185 179 183 201 209 204 213 213 213 220 237 245 254 257 258
95 179 172 188 199 204 255 337 41 67 134 185 158 157 162 168 176 182 187 189 185 183 191 189 189 187 187 184 180 181 182 185 190 195 193 186 189 199 195 198 203 205 210 211 226 237 247 251 247
46 205 219 215 216 220 54 22 73 33 30 71 104 118 133 152 177 185 185 193 190 191 195 191 191 190 186 182 183 184 189 192 196 197 198 192 190 192 188 198 204 213 215 213 217 224 233 239 239
208 207 268 270 270 2 65 31 48 18 35 59 76 82 77 72 62 47 31 77 185 190 200 196 192 189 185 184 186 187 192 193 193 198 201 196 192 189 190 197 203 214 218 215 212 216 216 214 195
302 346 337 338 335 30 79 40 21 354 41 52 53 61 62 50 46 41 28 22 15 296 229 209 195 190 188 188 189 188 191 190 194 201 204 201 196 192 192 197 201 209 215 213 202 205 193 180 158
13 31 355 346 26 48 85 54 360 7 46 44 38 41 44 39 37 30 24 27 26 19 8 332 225 199 195 193 193 191 191 190 195 200 202 203 202 195 185 189 195 196 194 189 178 166 153 154 145
24 22 355 5 19 37 70 63 13 18 44 39 31 29 30 28 26 21 20 22 23 19 10 358 343 251 214 201 196 195 189 189 193 196 198 200 199 190 177 179 178 170 165 170 173 147 141 142 152
345 4 7 23 12 60 72 63 36 33 46 42 31 23 22 22 15 11 13 16 18 14 12 5 353 343 279 230 207 194 185 186 187 189 191 189 188 181 170 166 161 151 145 151 148 134 122 130 146
79 72 39 28 17 63 78 65 42 34 38 32 25 19 14 11 6 7 9 8 12 11 9 2 352 343 339 276 215 201 201 188 184 187 179 175 166 166 164 160 155 147 148 157 149 131 129 125 120
57 57 15 335 9 71 92 71 48 43 37 30 22 12 5 1 1 1 2 3 3 2 2 356 347 337 329 302 250 215 192 181 182 181 171 169 158 152 164 158 158 151 144 146 144 138 140 149 135
31 62 340 310 353 34 106 59 24 21 25 22 18 10 3 359 353 352 353 351 351 353 353 350 338 333 328 321 307 264 124 101 147 165 163 163 152 146 145 153 150 149 149 161 166 158 153 162 177
319 309 306 299 12 311 49 79 14 351 5 8 4 1 355 350 346 344 346 344 343 342 344 344 340 335 329 321 293 225 197 193 189 173 153 141 133 132 131 136 141 149 158 169 174 162 156 154 174
295 295 291 274 172 50 16 94 360 352 1 353 350 351 348 344 341 339 339 337 335 337 342 342 341 343 338 332 310 255 219 202 164 148 141 139 134 124 127 134 134 144 167 182 176 160 164 166 175
334 355 20 44 71 56 349 81 26 2 343 336 340 344 339 338 337 336 335 338 337 341 344 345 345 346 347 351 350 352 148 158 151 152 153 152 143 127 133 139 146 153 159 177 179 180 177 176 191
23 44 30 21 29 44 38 71 43 339 340 333 334 335 334 335 334 338 337 336 339 345 348 350 355 352 354 3 10 20 62 125 146 149 151 152 150 147 148 147 147 142 158 186 173 173 187 187 198
18 81 109 119 257 326 35 61 267 328 331 335 338 338 339 341 341 343 340 337 341 348 348 353 359 0 4 12 16 21 39 75 92 108 125 141 147 144 145 148 158 169 186 192 180 181 203 196 206
28 20 143 139 63 64 44 18 316 338 346 348 349 350 350 348 348 347 345 351 351 351 353 355 3 8 10 15 23 28 39 64 78 86 90 97 113 135 137 142 175 208 207 199 190 205 215 204 209
59 52 51 66 77 53 14 5 330 330 336 341 347 348 345 346 349 351 354 356 356 358 4 10 17 18 17 21 28 40 42 57 69 74 75 72 57 69 107 154 175 198 209 210 201 218 223 199 202
13 25 55 77 98 117 24 321 302 305 316 325 332 339 339 345 347 352 355 356 1 11 18 18 19 21 23 25 30 37 39 44 52 60 61 66 63 66 114 188 180 237 220 209 193 207 194 181 197
60 39 88 108 64 82 117 281 287 296 304 311 321 330 334 338 347 352 355 359 8 15 18 18 19 24 24 26 34 36 34 39 43 42 40 44 46 39 22 26 7 302 307 282 211 212 198 185 185